If you wish to contribute or participate in the discussions about articles you are invited to join SKYbrary as a registered user

 Actions

Accra/Kotoka

From SKYbrary Wiki

DGAA
Airport
ICAO: DGAA
Summary
Name Accra/Kotoka
Region Africa
Territory Ghana GH.gif
Location Accra
Serving
Coordinates 5° 36' 17.34" N, 0° 10' 2.42" W
Runways
Designator Length Width Surface ROPS
3/21 3403 m11,164.698 ft <br /> 61 m200.131 ft <br /> ASP yes/yes


METAR
Observation DGAA 180300Z 27006KT CAVOK 26/21 Q1010 NOSIG
Station Accra
Date/Time 18 April 2021 03:00:00
Wind direction 270°
Wind speed 06 kts
Lowest cloud amount clouds and visibility OK
Temperature 26°C
Dew point 21°C
Humidity 74%
QNH 1010 hPa
Weather condition n/a


Accra/Kotoka Airport

ICAO: DGAA IATA: ACC

Description

International airport serving the capital of Ghana.

Climatology

Tropical Savanna climate (Köppen climate classification Aw)

Maps

Terrain

Loading map...

Airport Layout

Loading map...


Accidents & Serious Incidents at or in vicinity of DGAA

None on SKYbrary